Location: Les Gen�tes
(46.3104°N, 1.5969°E)
Time: 20:09:52
(UTC+00:00)

Cosmos 1092 Rocket - Pass Details

Date: 01 June 2020
Orbit: 955 x 994 km, 82.9° (Epoch: 05 July)

Event Time Altitude Azimuth Distance (km) Brightness Sun altitude
Exits shadow 21:15:28 16° 162° (SSE) 2,293 5.4 -12.9°
Maximum altitude 21:20:17 52° 91° (E) 1,182 4.2 -13.4°
Drops below altitude 10° 21:26:13 10° 18° (NNE) 2,700 6.9 -14.0°
Sets 21:28:47 0° 13° (NNE) 3,654 7.7 -14.2°
